Flag for Norway Weather past 2 weeks in Drammen, Norway

Now
46 °F

Partly sunny.


Feels Like: 41 °F
Forecast: 43 / 47 °F
Wind: 13 mph from South

Location: Oslo / Fornebu

Current Time: May 29, 2015 at 11:14:53 AM

Latest Report: May 29, 2015 at 10:50 AM


Visibility: N/A

Pressure: 29.45 "Hg

Humidity: 82%

Dew point: 41 °F

Location of DrammenLocation

Historic Weather in Drammen — Graph

°F

Drammen temperature yesterday

Maximum temperature yesterday: 48 °F (at 1:50 PM)
Minimum temperature yesterday: 45 °F (at 9:20 AM)
Average temperature yesterday: 46 °F

Past Weeks' High & Low Weather Summary

 TemperatureHumidityPressure
High54 °F (May 20, 9:20 AM)100% (May 16, 3:20 AM)30.09 "Hg (May 16, 3:20 AM)
Low41 °F (May 14, 9:20 AM)53% (May 14, 2:50 PM)29.30 "Hg (May 19, 8:20 AM)
Average46 °F77%29.68 "Hg
* Reported May 14 9:20 AM — May 29 9:50 AM, Drammen, Weather by CustomWeather, © 2015

Note: Actual official high and low records may vary slightly from our data, if they occured in-between our weather recording intervals... More about our weather records

Advertising

Drammen weather history for previous 24 hours

 ConditionsComfort  
Time TempWeatherWind HumidityBarometerVisibility
9:50 AM
Fri, May 29
46 °FPartly sunny.9 mph76%29.45 "HgN/A
9:20 AM46 °FSprinkles. Partly sunny.12 mph76%29.42 "HgN/A
8:50 AM46 °FCool.9 mph76%29.42 "HgN/A
8:20 AM45 °FScattered clouds.7 mph81%29.42 "HgN/A
7:50 AM45 °FSprinkles. Partly sunny.12 mph76%29.42 "HgN/A
7:20 AM46 °FPassing clouds.8 mph76%29.42 "HgN/A
6:50 AM43 °FLight rain. Partly sunny.18 mph81%29.45 "HgN/A
6:20 AM46 °FScattered clouds.10 mph76%29.42 "HgN/A
5:50 AM45 °FPartly sunny.10 mph81%29.42 "HgN/A
5:20 AM45 °FQuite cool.14 mph81%29.42 "HgN/A
4:50 AM45 °FQuite cool.14 mph81%29.42 "HgN/A
4:20 AM45 °FPassing clouds.12 mph81%29.45 "HgN/A
3:50 AM45 °FPartly cloudy.8 mph81%29.45 "HgN/A
3:20 AM45 °FPassing clouds.10 mph81%29.45 "HgN/A
2:50 AM45 °FPassing clouds.15 mph81%29.45 "HgN/A
2:20 AM46 °FPassing clouds.13 mph76%29.45 "HgN/A
1:50 AM46 °FPassing clouds.14 mph76%29.45 "HgN/A
1:20 AM46 °FPassing clouds.16 mph76%29.45 "HgN/A
12:50 AM46 °FPartly cloudy.17 mph76%29.45 "HgN/A
11:50 PM
Thu, May 28
45 °FSprinkles. Passing clouds.15 mph81%29.45 "HgN/A
11:20 PM46 °FPassing clouds.16 mph82%29.45 "HgN/A
10:50 PM46 °FPartly sunny.16 mph82%29.45 "HgN/A
10:20 PM46 °FPartly sunny.20 mph82%29.45 "HgN/A
9:50 PM46 °FOvercast.17 mph82%29.45 "HgN/A
9:20 PM46 °FOvercast.18 mph76%29.45 "HgN/A
8:50 PM46 °FPartly sunny.22 mph82%29.42 "HgN/A
8:20 PM46 °FPartly sunny.16 mph82%29.45 "HgN/A
7:50 PM46 °FPartly sunny.17 mph82%29.42 "HgN/A
7:20 PM46 °FPartly sunny.18 mph82%29.42 "HgN/A
6:50 PM48 °FPartly sunny.18 mph76%29.42 "HgN/A
6:20 PM48 °FBroken clouds.18 mph82%29.42 "HgN/A
5:50 PM48 °FPartly sunny.15 mph82%29.42 "HgN/A
5:20 PM46 °FPartly sunny.13 mph87%29.42 "HgN/A
4:50 PM46 °FBroken clouds.7 mph87%29.42 "HgN/A
4:20 PM46 °FPartly sunny.8 mph87%29.45 "HgN/A
3:50 PM48 °FPartly sunny.8 mph76%29.45 "HgN/A
3:20 PM46 °FPartly sunny.7 mph87%29.42 "HgN/A
2:50 PM46 °FOvercast.2 mph87%29.42 "HgN/A
2:20 PM46 °FPartly sunny.5 mph87%29.42 "Hg5 mi
1:50 PM48 °FPartly sunny.5 mph82%29.42 "HgN/A
1:20 PM46 °FOvercast.3 mph93%29.42 "HgN/A
12:50 PM46 °FLight rain. Overcast.2 mph93%29.45 "HgN/A
12:20 PM46 °FLight rain. Partly sunny.2 mph87%29.45 "Hg4 mi
11:50 AM46 °FLight rain. Overcast.7 mph87%29.45 "Hg6 mi
11:20 AM46 °FLight rain. Partly sunny.13 mph87%29.45 "HgN/A
Weather by CustomWeather, © 2015

See weather overviewHow to use our weather pages